This is the latest recevied weather packets stored in our database for station/object TULLARI. If no packets are shown the sender has not sent any weather packets the latest 10 day(s).
| Time | Temp. | Humidity | Pressure | Rain* | Wind** | Luminosity | Snow |
|---|---|---|---|---|---|---|---|
| 1777520819 | 4.44° C | 99% | 1022.8 hPa | - | - | - | - |
| 1777519618 | 4.44° C | 100% | 1023.1 hPa | - | - | - | - |
| 1777518420 | 4.44° C | 100% | 1023.3 hPa | - | - | - | - |
| 1777517219 | 4.44° C | 100% | 1023.3 hPa | - | - | - | - |
| 1777516019 | 4.44° C | 99% | 1023.5 hPa | - | - | - | - |
| 1777514819 | 4.44° C | 97% | 1023.6 hPa | - | - | - | - |
| 1777513620 | 4.44° C | 94% | 1023.7 hPa | - | - | - | - |
| 1777512419 | 4.44° C | 92% | 1023.8 hPa | - | - | - | - |
| 1777511219 | 4.44° C | 88% | 1023.9 hPa | - | - | - | - |
| 1777510018 | 4.44° C | 88% | 1024.1 hPa | - | - | - | - |
| 1777508818 | 4.44° C | 86% | 1024.2 hPa | - | - | - | - |
| 1777507618 | 4.44° C | 84% | 1024.3 hPa | - | - | - | - |
| 1777506420 | 4.44° C | 83% | 1024.2 hPa | - | - | - | - |
| 1777505219 | 4.44° C | 80% | 1024.3 hPa | - | - | - | - |
| 1777504018 | 4.44° C | 79% | 1024.6 hPa | - | - | - | - |
| 1777502819 | 5° C | 76% | 1024.6 hPa | - | - | - | - |
| 1777501618 | 4.44° C | 81% | 1024.7 hPa | - | - | - | - |
| 1777500418 | 4.44° C | 83% | 1024.7 hPa | - | - | - | - |
| 1777499218 | 4.44° C | 86% | 1024.7 hPa | - | - | - | - |
| 1777498018 | 4.44° C | 87% | 1024.7 hPa | - | - | - | - |
| 1777496818 | 4.44° C | 90% | 1024.8 hPa | - | - | - | - |
| 1777495618 | 4.44° C | 88% | 1024.7 hPa | - | - | - | - |
| 1777494417 | 4.44° C | 89% | 1024.8 hPa | - | - | - | - |
| 1777493218 | 4.44° C | 86% | 1025 hPa | - | - | - | - |
| 1777492017 | 4.44° C | 85% | 1025.1 hPa | - | - | - | - |
* Rain since midnight (hover to see other rain measurements)
** Current wind speed in m/s (hover to see current wind gust speed)